Time,TemperatureF,DewpointF,PressureIn,WindDirection,WindDirectionDegrees,WindSpeedMPH,WindSpeedGustMPH,Humidity,HourlyPrecipIn,Conditions,Clouds,dailyrainin,SolarRadiationWatts/m^2,SoftwareType,DateUTC
2013-07-28 00:00:00,70.7,69.5,29.88,South,191,0.0,0.0,96,0.00,,OVC018,0.00,0.00,VWS V14.00,2013-07-28 04:00:00,
2013-07-28 01:00:00,70.6,69.7,29.88,South,191,0.0,0.0,97,0.00,,OVC018,0.00,0.00,VWS V14.00,2013-07-28 05:00:00,
2013-07-28 02:00:00,70.6,69.1,29.88,SW,236,0.0,0.0,95,0.00,,OVC018,0.00,0.00,VWS V14.00,2013-07-28 06:00:00,
2013-07-28 03:00:00,69.1,67.9,29.88,SW,217,0.0,0.0,96,0.00,,OVC018,0.00,0.00,VWS V14.00,2013-07-28 07:00:00,
2013-07-28 04:00:00,69.1,68.2,29.89,SSE,168,0.0,0.0,97,0.00,,OVC018,0.00,0.00,VWS V14.00,2013-07-28 08:00:00,
2013-07-28 05:00:00,69.3,68.4,29.90,SSE,168,0.0,0.0,97,0.00,,OVC018,0.00,0.00,VWS V14.00,2013-07-28 09:00:00,
2013-07-28 06:00:00,69.5,68.6,29.91,NNE,32,0.0,0.0,97,0.00,,OVC018,0.00,5.00,VWS V14.00,2013-07-28 10:00:00,
2013-07-28 07:00:00,70.4,69.5,29.93,SW,229,0.0,0.0,97,0.00,,OVC018,0.00,51.00,VWS V14.00,2013-07-28 11:00:00,
2013-07-28 08:00:00,73.3,71.8,29.95,SW,235,0.0,0.0,95,0.00,,OVC018,0.00,81.00,VWS V14.00,2013-07-28 12:00:00,
2013-07-28 09:00:00,78.1,73.2,29.94,NNW,329,0.0,0.0,85,0.00,,OVC018,0.00,455.00,VWS V14.00,2013-07-28 13:00:00,
2013-07-28 10:00:00,80.4,72.9,29.94,NNW,345,0.0,0.0,78,0.00,,OVC018,0.00,652.00,VWS V14.00,2013-07-28 14:00:00,
2013-07-28 11:00:00,83.9,73.1,29.94,SW,233,0.0,5.0,70,0.00,,OVC018,0.00,874.00,VWS V14.00,2013-07-28 15:00:00,
2013-07-28 12:00:00,84.0,74.0,29.94,WNW,286,1.0,3.0,72,0.00,,OVC018,0.00,932.00,VWS V14.00,2013-07-28 16:00:00,
2013-07-28 13:00:00,85.4,73.2,29.93,North,356,2.0,6.0,67,0.00,,OVC018,0.00,918.00,VWS V14.00,2013-07-28 17:00:00,
2013-07-28 14:00:00,86.5,73.8,29.91,South,186,4.0,5.0,66,0.00,,OVC018,0.00,1063.00,VWS V14.00,2013-07-28 18:00:00,
2013-07-28 15:00:00,87.1,74.4,29.90,SSE,157,0.0,3.0,66,0.00,,OVC018,0.00,881.00,VWS V14.00,2013-07-28 19:00:00,
2013-07-28 16:00:00,88.0,73.4,29.89,WSW,242,4.0,6.0,62,0.00,,OVC018,0.00,642.00,VWS V14.00,2013-07-28 20:00:00,
2013-07-28 17:00:00,87.3,72.7,29.89,SW,229,0.0,1.0,62,0.00,,OVC018,0.00,401.00,VWS V14.00,2013-07-28 21:00:00,
2013-07-28 18:00:00,85.2,76.8,29.90,South,189,0.0,1.0,76,0.00,,OVC018,0.00,325.00,VWS V14.00,2013-07-28 22:00:00,
2013-07-28 19:00:00,82.0,75.6,29.91,SW,226,0.0,0.0,81,0.00,,OVC018,0.00,21.00,VWS V14.00,2013-07-28 23:00:00,
2013-07-28 20:00:00,78.1,74.9,29.95,NNE,23,0.0,0.0,90,0.00,,OVC018,0.00,0.00,VWS V14.00,2013-07-29 00:00:00,
2013-07-28 22:00:00,77.0,74.2,29.95,SSE,157,0.0,0.0,91,0.00,,OVC018,0.00,0.00,VWS V14.00,2013-07-29 02:00:00,
2013-07-28 23:00:00,76.9,74.4,29.96,NNW,344,0.0,0.0,92,0.00,,OVC018,0.00,0.00,VWS V14.00,2013-07-29 03:00:00,